Location: Alfortville
(48.8058°N, 2.4204°E)
Time: 14:13:35
(UTC+00:00)

Meteor 1-19 Rocket - Pass Details

Date: 16 December 2023
Orbit: 806 x 928 km, 81.2° (Epoch: 01 March)

Event Time Altitude Azimuth Distance (km) Brightness Sun altitude
Rises 18:27:08 0° 185° (S) 3,523 7.6 -24.0°
Reaches altitude 10° 18:29:34 10° 184° (S) 2,598 6.9 -24.4°
Maximum altitude 18:35:31 79° 100° (E) 947 4.2 -25.3°
Enters shadow 18:37:54 39° 19° (NNE) 1,359 5.0 -25.7°
